| time (UTC) | temp F | wind direction | speed MPH | gust MPH | rain 1hr in | rain 24hr in | rain mn in | humidity % | barometer mb |
| 20260502215729 | 52 | 339 | 1.0 | 3.0 | 0.01 | 0.05 | 0.04 | 43 | 1081.6 |
| 20260502215631 | 52 | 16 | 2.0 | 4.0 | 0.01 | 0.05 | 0.04 | 43 | 1081.6 |
| 20260502214630 | 52 | 283 | 2.0 | 3.0 | 0.01 | 0.05 | 0.04 | 43 | 1081.6 |
| 20260502213630 | 53 | 46 | 1.0 | 2.0 | 0.01 | 0.05 | 0.04 | 41 | 1081.4 |
| 20260502212730 | 53 | 22 | 1.0 | 2.0 | 0.01 | 0.05 | 0.04 | 42 | 1081.4 |
| 20260502212633 | 53 | 22 | 0.0 | 1.0 | 0.01 | 0.05 | 0.04 | 43 | 1081.4 |
| 20260502212533 | 53 | 22 | 1.0 | 1.0 | 0.01 | 0.05 | 0.04 | 42 | 1081.4 |
| 20260502211530 | 54 | 7 | 1.0 | 4.0 | 0.01 | 0.05 | 0.04 | 42 | 1081.3 |
| 20260502210531 | 54 | 346 | 3.0 | 6.0 | 0.00 | 0.04 | 0.03 | 42 | 1081.4 |
| 20260502205532 | 53 | 11 | 2.0 | 3.0 | 0.00 | 0.04 | 0.03 | 41 | 1081.2 |
| 20260502204530 | 53 | 25 | 1.0 | 5.0 | 0.00 | 0.04 | 0.03 | 42 | 1081.6 |
| 20260502203531 | 54 | 43 | 1.0 | 2.0 | 0.00 | 0.04 | 0.03 | 43 | 1081.4 |
| 20260502202629 | 53 | 338 | 1.0 | 6.0 | 0.00 | 0.04 | 0.03 | 45 | 1081.5 |
| 20260502201630 | 53 | 256 | 1.0 | 3.0 | 0.00 | 0.04 | 0.03 | 41 | 1081.6 |
| 20260502200631 | 54 | 344 | 1.0 | 2.0 | 0.00 | 0.04 | 0.03 | 44 | 1081.7 |
| 20260502194631 | 53 | 335 | 0.0 | 3.0 | 0.00 | 0.05 | 0.03 | 42 | 1081.7 |
| 20260502193648 | 54 | 331 | 1.0 | 2.0 | 0.00 | 0.05 | 0.03 | 39 | 1081.7 |
| 20260502190647 | 54 | 311 | 0.0 | 2.0 | 0.00 | 0.05 | 0.03 | 43 | 1082.0 |
| 20260502185731 | 54 | 336 | 0.0 | 2.0 | 0.00 | 0.05 | 0.03 | 42 | 1082.1 |
| 20260502183747 | 55 | 349 | 1.0 | 7.0 | 0.00 | 0.05 | 0.03 | 43 | 1082.3 |
| 20260502181731 | 52 | 311 | 1.0 | 3.0 | 0.00 | 0.05 | 0.03 | 46 | 1082.4 |
| 20260502180630 | 52 | 300 | 1.0 | 4.0 | 0.01 | 0.05 | 0.03 | 44 | 1082.1 |
| 20260502163645 | 52 | 306 | 1.0 | 3.0 | 0.00 | 0.04 | 0.02 | 47 | 1082.9 |
| 20260502162731 | 53 | 271 | 2.0 | 4.0 | 0.00 | 0.04 | 0.02 | 46 | 1083.1 |
| 20260502161731 | 52 | 357 | 1.0 | 3.0 | 0.00 | 0.05 | 0.02 | 46 | 1083.1 |
| 20260502160731 | 51 | 326 | 1.0 | 3.0 | 0.00 | 0.05 | 0.02 | 46 | 1083.1 |
| 20260502150531 | 51 | 311 | 1.0 | 3.0 | 0.00 | 0.05 | 0.02 | 48 | 1083.2 |
| 20260502130629 | 46 | 53 | 1.0 | 3.0 | 0.00 | 0.04 | 0.01 | 80 | 1083.1 |
| 20260502123630 | 42 | 249 | 1.0 | 3.0 | 0.00 | 0.04 | 0.01 | 87 | 1082.9 |
| 20260502122632 | 41 | 225 | 0.0 | 0.0 | 0.00 | 0.04 | 0.01 | 90 | 1082.7 |
| 20260502121729 | 39 | 67 | 2.0 | 3.0 | 0.00 | 0.04 | 0.01 | 91 | 1082.6 |
| 20260502120729 | 37 | 180 | 0.0 | 0.0 | 0.00 | 0.04 | 0.01 | 92 | 1082.3 |
| 20260502115745 | 36 | 180 | 0.0 | 0.0 | 0.00 | 0.04 | 0.01 | 94 | 1081.9 |
| 20260502113729 | 36 | 180 | 0.0 | 0.0 | 0.00 | 0.04 | 0.01 | 94 | 1081.6 |
| 20260502112746 | 35 | 180 | 0.0 | 0.0 | 0.00 | 0.05 | 0.01 | 94 | 1081.6 |
| 20260502111733 | 35 | 180 | 0.0 | 0.0 | 0.00 | 0.05 | 0.01 | 94 | 1081.2 |
| 20260502110830 | 35 | 180 | 0.0 | 0.0 | 0.00 | 0.05 | 0.01 | 93 | 1081.2 |
| 20260502105929 | 35 | 180 | 0.0 | 0.0 | 0.00 | 0.05 | 0.01 | 92 | 1081.2 |
| 20260502104029 | 35 | 180 | 0.0 | 0.0 | 0.00 | 0.05 | 0.01 | 93 | 1081.2 |
| 20260502103930 | 35 | 180 | 0.0 | 0.0 | 0.00 | 0.05 | 0.01 | 92 | 1081.3 |
| 20260502102932 | 35 | 180 | 0.0 | 0.0 | 0.00 | 0.05 | 0.01 | 93 | 1081.3 |
| 20260502101029 | 35 | 180 | 0.0 | 0.0 | 0.00 | 0.05 | 0.01 | 93 | 1081.3 |
| 20260502091129 | 34 | 180 | 0.0 | 0.0 | 0.00 | 0.05 | 0.01 | 91 | 1081.1 |
| 20260502090129 | 34 | 180 | 0.0 | 0.0 | 0.00 | 0.05 | 0.01 | 92 | 1081.1 |
| 20260502071145 | 36 | 180 | 0.0 | 0.0 | 0.01 | 0.05 | 0.01 | 91 | 1081.0 |
| 20260502070128 | 37 | 180 | 0.0 | 0.0 | 0.01 | 0.05 | 0.01 | 92 | 1080.8 |
| 20260502065144 | 37 | 180 | 0.0 | 0.0 | 0.01 | 0.05 | 0.01 | 91 | 1081.0 |
| 20260502065046 | 37 | 180 | 0.0 | 0.0 | 0.01 | 0.05 | 0.01 | 91 | 1081.1 |
| 20260502063128 | 37 | 180 | 0.0 | 0.0 | 0.01 | 0.05 | 0.01 | 92 | 1081.4 |
| 20260502062130 | 37 | 180 | 0.0 | 0.0 | 0.01 | 0.06 | 0.01 | 92 | 1081.6 |
| 20260502061129 | 37 | 180 | 0.0 | 0.0 | 0.00 | 0.05 | 0.00 | 92 | 1081.9 |
| 20260502061030 | 38 | 180 | 0.0 | 0.0 | 0.00 | 0.05 | 0.00 | 92 | 1081.8 |
| 20260502060029 | 38 | 180 | 0.0 | 0.0 | 0.00 | 0.05 | 0.00 | 91 | 1081.8 |
| 20260502053931 | 38 | 180 | 0.0 | 0.0 | 0.00 | 0.05 | 0.00 | 92 | 1081.9 |
| 20260502052931 | 38 | 180 | 0.0 | 0.0 | 0.00 | 0.05 | 0.00 | 92 | 1081.7 |
| 20260502051931 | 37 | 180 | 0.0 | 0.0 | 0.00 | 0.05 | 0.00 | 91 | 1081.7 |
| 20260502050930 | 37 | 180 | 0.0 | 0.0 | 0.00 | 0.05 | 0.00 | 91 | 1081.6 |
| 20260502050028 | 37 | 180 | 0.0 | 0.0 | 0.00 | 0.05 | 0.00 | 91 | 1081.6 |
| 20260502044047 | 36 | 180 | 0.0 | 0.0 | 0.00 | 0.05 | 0.00 | 90 | 1081.7 |
| 20260502043030 | 37 | 180 | 0.0 | 0.0 | 0.00 | 0.05 | 0.00 | 90 | 1081.7 |
| 20260502041029 | 37 | 180 | 0.0 | 0.0 | 0.00 | 0.05 | 0.00 | 88 | 1081.6 |
| 20260502040031 | 37 | 180 | 0.0 | 0.0 | 0.00 | 0.05 | 0.00 | 87 | 1081.6 |
| 20260502035027 | 37 | 180 | 0.0 | 0.0 | 0.00 | 0.05 | 0.05 | 86 | 1081.8 |
| 20260502034043 | 38 | 180 | 0.0 | 0.0 | 0.00 | 0.05 | 0.05 | 87 | 1081.7 |
| 20260502033126 | 39 | 180 | 0.0 | 0.0 | 0.00 | 0.05 | 0.05 | 87 | 1081.7 |
| 20260502033027 | 39 | 180 | 0.0 | 0.0 | 0.00 | 0.05 | 0.05 | 86 | 1081.8 |
| 20260502031129 | 40 | 180 | 0.0 | 0.0 | 0.00 | 0.05 | 0.05 | 85 | 1081.7 |
| 20260502030028 | 40 | 180 | 0.0 | 0.0 | 0.00 | 0.05 | 0.05 | 86 | 1081.6 |
| 20260502024029 | 40 | 180 | 0.0 | 0.0 | 0.00 | 0.05 | 0.05 | 84 | 1081.7 |
| 20260502023027 | 40 | 180 | 0.0 | 0.0 | 0.00 | 0.05 | 0.05 | 84 | 1081.6 |
| 20260502022026 | 40 | 180 | 0.0 | 0.0 | 0.00 | 0.05 | 0.05 | 83 | 1081.4 |
| 20260502021027 | 41 | 180 | 0.0 | 0.0 | 0.00 | 0.05 | 0.05 | 83 | 1081.4 |
| 20260502015030 | 41 | 180 | 0.0 | 0.0 | 0.00 | 0.05 | 0.05 | 80 | 1081.2 |
| 20260502014027 | 41 | 180 | 0.0 | 0.0 | 0.00 | 0.05 | 0.05 | 79 | 1080.8 |
| 20260502013127 | 42 | 180 | 0.0 | 0.0 | 0.00 | 0.05 | 0.05 | 78 | 1080.8 |
| 20260502012145 | 42 | 180 | 0.0 | 0.0 | 0.00 | 0.05 | 0.05 | 76 | 1080.7 |
| 20260502012042 | 42 | 180 | 0.0 | 0.0 | 0.00 | 0.05 | 0.05 | 76 | 1080.7 |
| 20260502011127 | 43 | 180 | 0.0 | 0.0 | 0.00 | 0.05 | 0.05 | 75 | 1080.5 |
| 20260502011026 | 43 | 180 | 0.0 | 0.0 | 0.00 | 0.05 | 0.05 | 75 | 1080.4 |
| 20260502010042 | 43 | 180 | 0.0 | 0.0 | 0.00 | 0.05 | 0.05 | 75 | 1080.2 |
| 20260502005043 | 44 | 180 | 0.0 | 0.0 | 0.00 | 0.05 | 0.05 | 72 | 1080.2 |
| 20260502004128 | 45 | 180 | 0.0 | 0.0 | 0.01 | 0.05 | 0.05 | 71 | 1079.9 |
| 20260502003127 | 46 | 180 | 0.0 | 0.0 | 0.01 | 0.06 | 0.05 | 68 | 1079.5 |
| 20260502002128 | 47 | 180 | 0.0 | 0.0 | 0.01 | 0.06 | 0.05 | 68 | 1079.5 |
| 20260502001126 | 47 | 180 | 0.0 | 0.0 | 0.01 | 0.06 | 0.05 | 66 | 1079.6 |
| 20260502001045 | 47 | 180 | 0.0 | 0.0 | 0.01 | 0.06 | 0.05 | 65 | 1079.6 |
| 20260501234228 | 50 | 157 | 0.0 | 1.0 | 0.00 | 0.05 | 0.04 | 64 | 1080.0 |
| 20260501233327 | 50 | 157 | 0.0 | 0.0 | 0.00 | 0.05 | 0.04 | 65 | 1079.8 |
| 20260501230326 | 51 | 270 | 0.0 | 0.0 | 0.00 | 0.05 | 0.04 | 62 | 1079.7 |
| 20260501225425 | 52 | 270 | 0.0 | 0.0 | 0.00 | 0.05 | 0.04 | 59 | 1079.7 |
| 20260501225328 | 52 | 270 | 0.0 | 0.0 | 0.00 | 0.05 | 0.04 | 59 | 1079.9 |
| 20260501224329 | 52 | 49 | 1.0 | 3.0 | 0.00 | 0.05 | 0.04 | 59 | 1079.9 |
| 20260501223344 | 53 | 247 | 0.0 | 0.0 | 0.00 | 0.05 | 0.04 | 60 | 1080.0 |
| 20260501222328 | 53 | 45 | 0.0 | 0.0 | 0.00 | 0.05 | 0.04 | 59 | 1079.8 |
| 20260501221327 | 54 | 289 | 0.0 | 1.0 | 0.00 | 0.05 | 0.04 | 59 | 1079.9 |